Weather History for Trinidad, CO

Change the Weather History Date:

Thursday, July 18, 2013

  Actual Average Record
Temperature  
Mean Temperature 77 °F 74 °F  
Max Temperature 91 °F 89 °F 98 °F (2003)
Min Temperature 62 °F 59 °F 52 °F (1987)
Degree Days  
Heating Degree Days 0 0  
Month to date heating degree days 0 0  
Since 1 June heating degree days 21 39  
Since 1 July heating degree days 0 0  
Cooling Degree Days 12 9  
Month to date cooling degree days 171 156  
Year to date cooling degree days 515 325  
Since 1 June cooling degree days 452 297  
Growing Degree Days 26 (Base 50)    
Moisture  
Dew Point 50 °F    
Average Humidity 44    
Maximum Humidity 67    
Minimum Humidity 21    
Precipitation  
Precipitation 0.00 in 0.08 in 0.85 in (1971)
Month to date precipitation 0.83 1.19  
Year to date precipitation 3.85 7.12  
Sea Level Pressure  
Sea Level Pressure 29.93 in    
Wind  
Wind Speed 11 mph (SW)    
Max Wind Speed 23 mph    
Max Gust Speed 35 mph    
Visibility 10 miles    
Events      
T = Trace of Precipitation, MM = Missing Value Source: NWS Daily Summary

Daily Weather History Graph

Daily Weather History Graph

Search for Another Location

Airport:

Trip Planner

Search our weather history database for the weather conditions in past years. The results will help you decide how hot, cold, wet, or windy it might be!

Date:

Astronomy

Jul. 18, 2013 Rise Set
Actual Time 5:51 AM MDT 8:15 PM MDT
Civil Twilight 5:21 AM MDT 8:45 PM MDT
Nautical Twilight 4:44 AM MDT 9:22 PM MDT
Astronomical Twilight 4:03 AM MDT 10:02 PM MDT
Moon 4:15 PM MDT (7/18) 1:42 AM MDT (7/18)
Length of Visible Light 15h 24m
Length of Day
14h 24m
Waxing Gibbous, 78% of the Moon is Illuminated
Jul 18
Waxing Gibbous
Jul 22
Full
Jul 29
Last Quarter
Aug 6
New
Aug 14
First Quarter

Hourly Weather History & Observations

Time (MDT) Temp. Dew Point Humidity Pressure Visibility Wind Dir Wind Speed Gust Speed Precip Events Conditions
12:54 AM 64.9 °F 52.0 °F 63% 30.05 in 10.0 mi WSW 10.4 mph - N/A   Clear
1:54 AM 64.9 °F 51.1 °F 61% 30.01 in 10.0 mi SW 16.1 mph 24.2 mph N/A   Clear
2:54 AM 64.9 °F 51.1 °F 61% 29.99 in 10.0 mi SW 17.3 mph 25.3 mph N/A   Clear
3:54 AM 64.0 °F 51.1 °F 63% 29.99 in 10.0 mi WSW 19.6 mph - N/A   Clear
4:54 AM 63.0 °F 51.1 °F 65% 29.98 in 10.0 mi WSW 15.0 mph 24.2 mph N/A   Clear
5:54 AM 62.1 °F 51.1 °F 67% 29.99 in 10.0 mi SSW 10.4 mph - N/A   Clear
6:54 AM 64.0 °F 51.1 °F 63% 30.00 in 10.0 mi WSW 12.7 mph - N/A   Clear
7:54 AM 69.1 °F 52.0 °F 54% 29.99 in 10.0 mi WSW 12.7 mph - N/A   Clear
8:54 AM 73.9 °F 51.1 °F 45% 29.99 in 10.0 mi SW 10.4 mph - N/A   Clear
9:54 AM 79.0 °F 51.1 °F 38% 29.97 in 10.0 mi WSW 13.8 mph - N/A   Clear
10:54 AM 82.0 °F 48.9 °F 31% 29.95 in 10.0 mi West 8.1 mph - N/A   Clear
11:54 AM 84.9 °F 48.0 °F 28% 29.94 in 10.0 mi Variable 5.8 mph - N/A   Clear
12:54 PM 86.0 °F 48.0 °F 27% 29.92 in 10.0 mi Variable 3.5 mph - N/A   Clear
1:54 PM 89.1 °F 45.0 °F 22% 29.89 in 10.0 mi Calm Calm - N/A   Clear
2:54 PM 90.0 °F 44.1 °F 20% 29.86 in 10.0 mi Calm Calm - N/A   Clear
3:54 PM 90.0 °F 48.0 °F 24% 29.85 in 10.0 mi SSW 12.7 mph 20.7 mph N/A   Partly Cloudy
4:54 PM 90.0 °F 48.9 °F 24% 29.82 in 10.0 mi South 10.4 mph 18.4 mph N/A   Clear
5:54 PM 88.0 °F 48.9 °F 26% 29.82 in 10.0 mi South 9.2 mph 18.4 mph N/A   Clear
6:54 PM 87.1 °F 50.0 °F 28% 29.82 in 10.0 mi SW 16.1 mph 23.0 mph N/A   Clear
7:54 PM 81.0 °F 52.0 °F 36% 29.84 in 10.0 mi South 13.8 mph - N/A   Clear
8:54 PM 77.0 °F 53.1 °F 43% 29.86 in 10.0 mi WSW 3.5 mph - N/A   Clear
9:54 PM 75.9 °F 53.1 °F 45% 29.90 in 10.0 mi NW 18.4 mph 23.0 mph N/A   Clear
10:54 PM 73.0 °F 53.1 °F 49% 29.92 in 10.0 mi West 11.5 mph - N/A   Clear
11:54 PM 72.0 °F 53.1 °F 51% 29.91 in 10.0 mi WSW 11.5 mph - N/A   Clear